DW7500 Weather Reports


time (UTC)temp
C
wind
direction
speed
KPH
gust
KPH
rain 1hr
cm
rain 24hr
cm
rain mn
cm
humidity
%
barometer
mb
20260509123014 11 201 16.1 32.2 0.00 0.00 0.00 83 998.6
20260509121511 11 257 17.7 30.6 0.00 0.00 0.00 84 998.6
20260509120008 11 201 17.7 41.8 0.00 0.00 0.00 84 998.7
20260509114506 11 259 16.1 30.6 0.00 0.00 0.00 84 998.6
20260509113003 11 211 14.5 32.2 0.00 0.00 0.00 84 998.5
20260509111501 11 215 12.9 29.0 0.00 0.00 0.00 84 998.7
20260509110057 11 238 16.1 33.8 0.00 0.00 0.00 84 998.6
20260509104559 11 249 14.5 33.8 0.00 0.00 0.00 83 998.6
20260509103102 12 265 16.1 49.9 0.00 0.00 0.00 83 998.5
20260509101548 12 220 14.5 35.4 0.00 0.00 0.00 83 998.7
20260509100048 12 217 14.5 29.0 0.00 0.00 0.00 82 998.7
20260509094554 12 230 11.3 30.6 0.00 0.00 0.00 80 999.0
20260509093042 12 225 17.7 35.4 0.00 0.00 0.00 80 999.3
20260509091549 12 217 16.1 35.4 0.00 0.00 0.00 79 999.5
20260509090051 12 244 20.9 40.2 0.00 0.00 0.00 79 999.6
20260509084537 12 230 17.7 30.6 0.00 0.00 0.00 78 999.6
20260509083035 12 234 12.9 29.0 0.00 0.00 0.00 77 999.7
20260509081532 12 251 12.9 19.3 0.00 0.00 0.00 73 999.8
20260509080032 12 186 11.3 30.6 0.00 0.00 0.00 70 999.9
20260509074528 13 227 11.3 27.4 0.00 0.00 0.00 68 1000.2
20260509073035 13 216 12.9 27.4 0.00 0.00 0.00 70 1000.5
20260509071524 13 211 12.9 25.7 0.00 0.00 0.00 70 1000.9
20260509070022 13 360 14.5 25.7 0.00 0.00 0.00 69 1001.2
20260509064518 13 207 8.0 25.7 0.00 0.00 0.00 67 1001.7
20260509063026 13 360 9.7 27.4 0.00 0.00 0.00 62 1002.0
20260509061513 13 360 12.9 27.4 0.00 0.00 0.00 58 1002.0
20260509060011 12 360 14.5 33.8 0.00 0.00 0.00 55 1002.4
20260509054506 12 360 9.7 20.9 0.00 0.00 0.00 53 1002.4
20260509053004 12 360 6.4 20.9 0.00 0.00 0.00 52 1002.5
20260509051508 12 360 6.4 17.7 0.00 0.00 0.00 54 1002.7
20260509050106 12 360 6.4 19.3 0.00 0.00 0.00 52 1002.8
20260509044607 12 360 6.4 19.3 0.00 0.00 0.00 50 1003.0
20260509043059 12 360 9.7 24.1 0.00 0.00 0.00 45 1003.1
20260509041553 12 360 8.0 17.7 0.00 0.00 0.00 40 1003.3
20260509040104 12 208 9.7 22.5 0.00 0.00 0.00 36 1003.4
20260509034547 12 195 11.3 27.4 0.00 0.00 0.00 33 1003.6
20260509033108 12 186 9.7 25.7 0.00 0.00 0.00 32 1003.7
20260509031545 12 222 14.5 24.1 0.00 0.00 0.00 31 1003.9
20260509030043 12 188 9.7 20.9 0.00 0.00 0.00 32 1004.0
20260509024555 12 198 8.0 24.1 0.00 0.00 0.00 32 1004.2
20260509023042 12 204 3.2 20.9 0.00 0.00 0.00 34 1004.3
20260509021541 12 251 6.4 16.1 0.00 0.00 0.00 37 1004.4
20260509020040 12 185 4.8 14.5 0.00 0.00 0.00 38 1004.3
20260509014540 12 154 3.2 8.0 0.00 0.00 0.00 37 1004.2
20260509013040 12 213 4.8 11.3 0.00 0.00 0.00 36 1004.2
20260509011544 13 175 6.4 11.3 0.00 0.00 0.00 34 1004.2
20260509010040 13 157 3.2 14.5 0.00 0.00 0.00 33 1004.3
20260509004537 14 219 6.4 22.5 0.00 0.00 0.00 32 1004.2
20260509003037 15 218 9.7 27.4 0.00 0.00 0.00 31 1004.2
20260509001537 15 177 9.7 20.9 0.00 0.00 0.00 30 1004.4
20260509000033 15 171 9.7 25.7 0.00 0.00 0.00 30 1004.6
20260508234532 15 184 9.7 17.7 0.00 0.00 0.00 30 1004.6
20260508233036 15 226 6.4 20.9 0.00 0.00 0.00 31 1004.8
20260508231530 16 360 11.3 20.9 0.00 0.00 0.00 29 1005.0
20260508230028 16 198 14.5 30.6 0.00 0.00 0.00 28 1005.1
20260508224526 16 224 16.1 30.6 0.00 0.00 0.00 28 1005.3
20260508223027 16 163 9.7 33.8 0.00 0.00 0.00 29 1005.3
20260508221526 16 199 16.1 25.7 0.00 0.00 0.00 29 1005.5
20260508220022 16 188 16.1 29.0 0.00 0.00 0.00 30 1005.6
20260508214526 16 217 11.3 33.8 0.00 0.00 0.00 30 1005.6
20260508213021 16 196 16.1 29.0 0.00 0.00 0.00 30 1005.7
20260508211619 16 148 12.9 25.7 0.00 0.00 0.00 30 1005.9
20260508210029 16 192 9.7 24.1 0.00 0.00 0.00 31 1006.1
20260508204516 16 226 14.5 29.0 0.00 0.00 0.00 29 1006.2
20260508203013 16 230 14.5 29.0 0.00 0.00 0.00 31 1006.5
20260508201511 16 240 17.7 29.0 0.00 0.00 0.00 35 1006.6
20260508200008 16 200 14.5 29.0 0.00 0.00 0.00 31 1006.8
20260508194508 15 360 16.1 29.0 0.00 0.00 0.00 39 1007.0
20260508193004 16 254 16.1 27.4 0.00 0.00 0.00 36 1007.0
20260508191502 16 266 17.7 27.4 0.00 0.00 0.00 34 1007.3
20260508190114 15 259 12.9 29.0 0.00 0.00 0.00 36 1007.5
20260508184601 14 225 19.3 29.0 0.00 0.00 0.00 37 1007.7
20260508183059 15 254 17.7 30.6 0.00 0.00 0.00 37 1007.9
20260508181558 15 227 16.1 29.0 0.00 0.00 0.00 37 1008.1
20260508180050 15 268 22.5 33.8 0.00 0.00 0.00 40 1008.3
20260508174549 15 228 20.9 32.2 0.00 0.00 0.00 42 1008.5
20260508173044 14 236 17.7 37.0 0.00 0.00 0.00 46 1008.8
20260508171545 13 267 16.1 30.6 0.00 0.00 0.00 46 1009.0
20260508170040 14 262 17.7 30.6 0.00 0.00 0.00 47 1009.2
20260508164536 13 245 12.9 27.4 0.00 0.00 0.00 50 1009.3
20260508163043 13 236 17.7 30.6 0.00 0.00 0.00 53 1009.5
20260508161546 13 228 19.3 30.6 0.00 0.00 0.00 51 1009.4
20260508160028 13 250 12.9 29.0 0.00 0.00 0.00 53 1009.4
20260508154526 12 263 17.7 30.6 0.00 0.00 0.00 54 1009.4
20260508153047 12 261 19.3 32.2 0.00 0.00 0.00 54 1009.5
20260508151519 12 250 14.5 27.4 0.00 0.00 0.00 55 1009.5
20260508150014 12 254 14.5 29.0 0.00 0.00 0.00 57 1009.6
20260508144510 12 267 14.5 22.5 0.00 0.00 0.00 57 1009.6
20260508143009 12 258 14.5 24.1 0.00 0.00 0.00 59 1009.6
20260508141507 12 257 17.7 24.1 0.00 0.00 0.00 56 1009.7
20260508140006 11 273 8.0 19.3 0.00 0.00 0.00 61 1009.6
20260508134600 11 244 12.9 19.3 0.00 0.00 0.00 62 1009.6
20260508133102 11 225 8.0 14.5 0.00 0.00 0.00 65 1009.8
20260508131552 9 140 6.4 19.3 0.00 0.00 0.00 75 1009.9
20260508130047 7 229 4.8 12.9 0.00 0.00 0.00 92 1010.0
20260508124543 5 178 4.8 11.3 0.00 0.00 0.00 98 1010.2